2017-008AX

Last updated on Fri Mar 10 2017 00:15:03 GMT+0000 (Coordinated Universal Time)

1 41993U 17008AX 17068.69301717 .00002468 00000-0 11177-3 0 9998 2 41993 97.5086 130.2868 0007877 172.4128 187.7205 15.21815627 2724
UTC large
Height (km)
Speed (km/s)
/
Latitude / Longitude
Inclination (degrees)
Orbital Period (minutes)
Azimuth
Elevation
Range (km)
Doppler Factor

Next 0 passes for location: London (51.5072 / 0.1276)

Sorry there are no passes over London.